STARLINK-4739, 53792

Orbit data source: Space-Track

STARLINK-4739, 53792 is a payload satellite owned by SpaceX/Seattle (US) in LEO that was launched on Sun, 11 Sep 2022 UTC via an FALCON 9 launch vehicle from the Air Force Eastern Test Range (AFETR). Payload-class satellites include a variety of spacecraft equipped with specific instruments for various scientific and technological missions. These include communications satellites like Starlink; space stations such as the ISS; scientific satellites like the Hubble; Earth observation satellites from companies like Planet Labs, Umbra, and HawkEye 360; GPS; miniature CubeSats for education and research; and military/defense satellites.

Loading next visibility...
Identifier
53792, 2022-111V
Orbit
LEO
Country
Flag of USUS
Related business
Manufacturer
SpaceX/Seattle
Mission
Operational Commercial Communications
Bus & Motor
STARLINK, Unknown motor
Mass
305 kg wet, ~290 kg dry
Launch date (UTC)
2022-09-11 (4 years ago)
Launch vehicle
FALCON 9
Launch site
Air Force Eastern Test Range (AFETR)
Object type
Payload
Rocket body
Debris
Shape & HBR
Box + 1 Pan, 10.1 m
Radar Cross Section
13.562 m², Large (>1 m²)

Expand to show TLE details & history
Last TLE update: 10 hours ago

TLE from 10 hours ago
0 STARLINK-4739
1 53792U 22111V   26127.92557392  .00003210  00000-0  21966-3 0  9996
2 53792  53.2161   8.5517 0001076  92.6512 267.4603 15.08841413202626
Epoch: 2026-05-07T22:12Z
TLE epoch observation values (Epoch: 2026-05-07T22:12:49.586Z)
Latitude
-0.00006°
Longitude
169.58033°
Altitude
540.669 km
Speed
7.593 km/s
True Right ascension
00h 34m 12s
True Declination
0° 00' 00"
Sunlit
Object was in daylight at epoch
Visualization orbit readout
Latitude
Unknown
Longitude
Unknown
Altitude
Unknown
Speed
Unknown
Apparent Right ascension
Unknown
Apparent Declination
Unknown
Sunlit
N/A
Visualization observer readout
Local Sidereal Time
16:08:40
Azimuth
Unknown
Elevation
Unknown
Doppler factor
Unknown
Orbital elements
Apogee altitude
540.729 km
Perigee altitude
539.24 km
Semi-major axis
6,918.121 km
Eccentricity
0.00011
Inclination
53.2161°
RAAN
8.5517°
Arg. of periapsis
92.6512°
True anomaly
267.44798°
Mean anomaly
267.4603°
Eccentric anomaly
267.45414°
Mean motion
3.77191 °/min
Orbital period
95.44 mins
BSTAR
0.00021966
Loading maneuver chart data...
Computing Atmospheric mass density...
Loading historical data...
Loading historical data...
Loading historical data...
Loading historical data...
Loading historical data...
Loading historical data...
Loading historical data...

Documentation

Showing up to 5 results
|